SBONWEB Weather Reports


Display with metric or nautical units.
time (UTC)temp
F
wind
direction
speed
MPH
gust
MPH
rain 1hr
in
rain 24hr
in
rain mn
in
humidity
%
barometer
mb
20260905164504 84 33 0.0 1.0 0.00 0.00 0.00 65 1017.8
20260905163603 85 41 0.0 2.0 0.00 0.00 0.00 60 1017.7
20260905162703 86 146 0.0 2.0 0.00 0.00 0.00 58 1017.6
20260905161803 86 176 2.0 5.0 0.00 0.00 0.00 59 1017.6
20260905161120 86 186 2.0 5.0 0.00 0.00 0.00 59 1017.6
20260905160003 86 194 1.0 5.0 0.00 0.00 0.00 58 1017.6
20260905155403 87 184 1.0 5.0 0.00 0.00 0.00 59 1017.7
20260905154718 87 185 1.0 5.0 0.00 0.00 0.00 59 1017.7
20260905153817 87 190 1.0 5.0 0.00 0.00 0.00 58 1017.6
20260905152703 88 193 1.0 3.0 0.00 0.00 0.00 56 1017.6
20260905151803 88 181 2.0 4.0 0.00 0.00 0.00 56 1017.7
20260905150904 88 186 2.0 6.0 0.00 0.00 0.00 54 1017.7
20260905150003 87 174 2.0 6.0 0.00 0.00 0.00 55 1017.7
20260905145618 87 176 2.0 6.0 0.00 0.00 0.00 55 1017.7
20260905144503 88 173 2.0 9.0 0.00 0.00 0.00 53 1017.8
20260905143604 88 162 2.0 4.0 0.00 0.00 0.00 55 1017.7
20260905142703 88 165 2.0 5.0 0.00 0.00 0.00 54 1017.7
20260905141803 88 161 2.0 5.0 0.00 0.00 0.00 53 1017.8
20260905140903 88 165 3.0 7.0 0.00 0.00 0.00 53 1017.8
20260905140004 88 149 3.0 6.0 0.00 0.00 0.00 54 1018.0
20260905135403 88 156 3.0 6.0 0.00 0.00 0.00 57 1017.9
20260905134503 88 166 3.0 6.0 0.00 0.00 0.00 52 1017.8
20260905133603 88 165 3.0 7.0 0.00 0.00 0.00 53 1018.0
20260905132704 88 141 3.0 8.0 0.00 0.00 0.00 55 1018.1
20260905132017 88 181 3.0 6.0 0.00 0.00 0.00 55 1018.1
20260905130903 87 201 3.0 7.0 0.00 0.00 0.00 54 1018.2
20260905130003 87 190 2.0 7.0 0.00 0.00 0.00 55 1018.2
20260905125403 87 174 3.0 5.0 0.00 0.00 0.00 56 1018.3
20260905124719 86 201 3.0 6.0 0.00 0.00 0.00 59 1018.4
20260905123603 86 202 3.0 6.0 0.00 0.00 0.00 55 1018.4
20260905122704 86 142 2.0 5.0 0.00 0.00 0.00 56 1018.5
20260905121803 86 155 2.0 5.0 0.00 0.00 0.00 57 1018.4
20260905120903 86 179 2.0 6.0 0.00 0.00 0.00 55 1018.5
20260905120218 85 175 2.0 6.0 0.00 0.00 0.00 56 1018.4
20260905115403 85 198 3.0 6.0 0.00 0.00 0.00 57 1018.6
20260905114504 84 210 3.0 7.0 0.00 0.00 0.00 56 1018.4
20260905113603 83 208 3.0 7.0 0.00 0.00 0.00 57 1018.5
20260905112703 83 200 2.0 7.0 0.00 0.00 0.00 57 1018.7
20260905111803 83 171 4.0 7.0 0.00 0.00 0.00 58 1018.8
20260905110903 83 184 3.0 8.0 0.00 0.00 0.00 58 1018.6
20260905110219 83 181 3.0 7.0 0.00 0.00 0.00 59 1018.6
20260905105404 82 174 2.0 6.0 0.00 0.00 0.00 60 1018.7
20260905104503 82 206 3.0 7.0 0.00 0.00 0.00 61 1018.8
20260905103603 82 200 3.0 10.0 0.00 0.00 0.00 62 1018.8
20260905102704 82 200 3.0 8.0 0.00 0.00 0.00 62 1018.9
20260905101803 82 188 3.0 8.0 0.00 0.00 0.00 61 1018.9
20260905100903 81 186 3.0 7.0 0.00 0.00 0.00 63 1018.9
20260905100003 81 191 3.0 7.0 0.00 0.00 0.00 63 1018.9
20260905095403 81 184 2.0 7.0 0.00 0.00 0.00 62 1018.9
20260905094503 81 223 2.0 7.0 0.00 0.00 0.00 61 1018.9
20260905093603 80 184 2.0 4.0 0.00 0.00 0.00 64 1018.9
20260905092704 80 192 2.0 5.0 0.00 0.00 0.00 64 1018.8
20260905092018 80 202 1.0 5.0 0.00 0.00 0.00 63 1018.8
20260905090903 79 186 1.0 4.0 0.00 0.00 0.00 65 1018.7
20260905090003 78 221 2.0 4.0 0.00 0.00 0.00 66 1018.7
20260905085403 77 227 2.0 5.0 0.00 0.00 0.00 66 1018.8
20260905084717 77 208 2.0 5.0 0.00 0.00 0.00 68 1018.7
20260905083603 75 208 2.0 3.0 0.00 0.00 0.00 73 1018.7
20260905082703 74 214 2.0 5.0 0.00 0.00 0.00 73 1018.6
20260905081804 74 213 3.0 5.0 0.00 0.00 0.00 73 1018.6
20260905080903 74 208 2.0 6.0 0.00 0.00 0.00 72 1018.5
20260905080004 74 211 2.0 4.0 0.00 0.00 0.00 72 1018.4
20260905075403 74 201 2.0 4.0 0.00 0.00 0.00 73 1018.4
20260905074503 74 196 1.0 4.0 0.00 0.00 0.00 72 1018.3
20260905073603 74 197 0.0 4.0 0.00 0.00 0.00 73 1018.4
20260905072918 74 0 0.0 0.0 0.00 0.00 0.00 73 1018.3
20260905071803 74 180 2.0 2.0 0.00 0.00 0.00 72 1018.3
20260905070903 73 196 1.0 4.0 0.00 0.00 0.00 73 1018.2
20260905070218 72 195 1.0 3.0 0.00 0.00 0.00 75 1018.3
20260905065403 72 205 0.0 2.0 0.00 0.00 0.00 79 1018.4
20260905064717 72 0 0.0 0.0 0.00 0.00 0.00 78 1018.2
20260905063608 72 0 0.0 0.0 0.00 0.00 0.00 77 1018.2
20260905062703 73 0 0.0 0.0 0.00 0.00 0.00 76 1018.0
20260905061803 72 0 0.0 0.0 0.00 0.00 0.00 77 1018.1
20260905060903 71 0 0.0 0.0 0.00 0.00 0.00 78 1018.1
20260905060217 70 0 0.0 0.0 0.00 0.00 0.00 79 1018.0
20260905055404 69 0 0.0 0.0 0.00 0.00 0.00 80 1017.9
20260905054503 68 0 0.0 0.0 0.00 0.00 0.00 83 1017.9
20260905053603 67 0 0.0 0.0 0.00 0.00 0.00 83 1018.0
20260905052703 66 216 0.0 2.0 0.00 0.00 0.00 84 1017.8
20260905051804 66 0 0.0 0.0 0.00 0.00 0.00 83 1017.7
20260905050903 66 216 0.0 1.0 0.00 0.00 0.00 83 1017.7
20260905050003 66 216 1.0 2.0 0.00 0.00 0.00 83 1017.5
20260905045403 66 216 1.0 2.0 0.00 0.00 0.00 83 1017.4
20260905044504 66 224 0.0 3.0 0.00 0.00 0.00 82 1017.5
20260905043604 66 0 0.0 0.0 0.00 0.00 0.00 83 1017.3
20260905042703 66 228 1.0 2.0 0.00 0.00 0.00 82 1017.2
20260905041803 67 216 1.0 3.0 0.00 0.00 0.00 81 1017.2
20260905040903 68 257 2.0 3.0 0.00 0.00 0.00 80 1017.2
20260905040003 68 353 1.0 3.0 0.00 0.00 0.00 80 1017.2
20260905035403 68 344 0.0 3.0 0.00 0.00 0.00 81 1017.2
20260905034503 67 0 0.0 0.0 0.00 0.00 0.00 81 1017.3
20260905033604 67 0 0.0 0.0 0.00 0.00 0.00 81 1017.3
20260905032703 67 0 0.0 0.0 0.00 0.00 0.00 80 1017.6
20260905031803 68 0 0.0 0.0 0.00 0.00 0.00 79 1017.5
20260905030903 69 0 0.0 0.0 0.00 0.00 0.00 78 1017.7
20260905030004 69 0 0.0 0.0 0.00 0.00 0.00 77 1017.7
20260905025403 69 0 0.0 0.0 0.00 0.00 0.00 77 1017.7
20260905024503 70 185 1.0 3.0 0.00 0.00 0.00 75 1017.8
20260905023603 72 354 3.0 6.0 0.00 0.00 0.00 72 1017.7
20260905022704 72 6 4.0 7.0 0.00 0.00 0.00 72 1017.6
20260905022019 72 3 4.0 8.0 0.00 0.00 0.00 72 1017.5
20260905020903 72 12 5.0 9.0 0.00 0.00 0.00 71 1017.4
20260905015403 72 350 6.0 10.0 0.00 0.00 0.00 71 1017.7
20260905014503 72 357 5.0 9.0 0.00 0.00 0.00 71 1017.7
20260905013603 72 315 4.0 8.0 0.00 0.00 0.00 73 1017.8
20260905012703 72 9 3.0 8.0 0.00 0.00 0.00 72 1017.8
20260905011804 72 5 3.0 5.0 0.00 0.00 0.00 72 1017.7
20260905010903 72 17 4.0 7.0 0.00 0.00 0.00 71 1017.9
20260905010003 72 12 3.0 8.0 0.00 0.00 0.00 71 1017.9
20260905005404 72 359 3.0 7.0 0.00 0.00 0.00 72 1018.0
20260905004503 71 10 2.0 7.0 0.00 0.00 0.00 72 1018.0
20260905003603 71 18 2.0 4.0 0.00 0.00 0.00 71 1017.9
20260905002703 71 6 3.0 6.0 0.00 0.00 0.00 71 1018.1
20260905001803 71 356 2.0 6.0 0.00 0.00 0.00 71 1018.1
20260905000904 71 7 0.0 4.0 0.00 0.00 0.00 69 1018.2
20260905000003 71 0 0.0 0.0 0.00 0.00 0.00 67 1018.3
20260904235403 71 0 0.0 0.0 0.00 0.00 0.00 67 1018.3
20260904234503 71 13 0.0 1.0 0.00 0.00 0.00 66 1018.2
20260904233817 71 343 0.0 1.0 0.00 0.00 0.00 65 1018.5
20260904232703 71 0 0.0 0.0 0.00 0.00 0.00 64 1018.4
20260904231803 71 0 0.0 0.0 0.00 0.00 0.00 63 1018.5
20260904230903 71 0 0.0 0.0 0.00 0.00 0.00 63 1018.3
20260904230004 70 0 0.0 0.0 0.00 0.00 0.00 62 1018.4
20260904225403 70 0 0.0 0.0 0.00 0.00 0.00 62 1018.6
20260904224503 70 0 0.0 0.0 0.00 0.00 0.00 63 1018.7
20260904223603 70 0 0.0 0.0 0.00 0.00 0.00 64 1018.7
20260904222703 70 0 0.0 0.0 0.00 0.00 0.00 64 1018.6
20260904221803 71 0 0.0 0.0 0.00 0.00 0.00 64 1018.6
20260904220903 71 0 0.0 0.0 0.00 0.00 0.00 65 1018.6
20260904220004 72 0 0.0 0.0 0.00 0.00 0.00 65 1018.6
20260904215403 72 0 0.0 0.0 0.00 0.00 0.00 65 1018.7
20260904214503 71 0 0.0 0.0 0.00 0.00 0.00 66 1018.7
20260904213819 71 0 0.0 0.0 0.00 0.00 0.00 68 1018.7
20260904212918 71 0 0.0 0.0 0.00 0.00 0.00 67 1018.8
20260904211803 71 0 0.0 0.0 0.00 0.00 0.00 67 1019.0
20260904210904 72 0 0.0 0.0 0.00 0.00 0.00 67 1018.8
20260904210003 72 0 0.0 0.0 0.00 0.00 0.00 68 1019.0
20260904205403 72 0 0.0 0.0 0.00 0.00 0.00 69 1019.1
20260904204503 73 0 0.0 0.0 0.00 0.00 0.00 67 1019.0
20260904203603 73 0 0.0 0.0 0.00 0.00 0.00 63 1019.1
20260904202704 73 0 0.0 0.0 0.00 0.00 0.00 68 1019.2
20260904202017 73 0 0.0 0.0 0.00 0.00 0.00 67 1019.2
20260904200904 73 0 0.0 0.0 0.00 0.00 0.00 71 1019.3
20260904200003 74 0 0.0 0.0 0.00 0.00 0.00 73 1019.2
20260904195403 74 0 0.0 0.0 0.00 0.00 0.00 73 1019.1
20260904194503 74 0 0.0 0.0 0.00 0.00 0.00 74 1019.0
20260904193603 74 0 0.0 0.0 0.00 0.00 0.00 74 1019.0
20260904192703 74 0 0.0 0.0 0.00 0.00 0.00 73 1018.8
20260904191804 75 0 0.0 0.0 0.00 0.00 0.00 72 1018.7
20260904190903 75 0 0.0 0.0 0.00 0.00 0.00 71 1018.4
20260904190004 75 0 0.0 0.0 0.00 0.00 0.00 71 1018.4
20260904185403 76 0 0.0 0.0 0.00 0.00 0.00 71 1018.5
20260904184718 76 0 0.0 0.0 0.00 0.00 0.00 70 1018.3
20260904183603 76 0 0.0 0.0 0.00 0.00 0.00 70 1018.3
20260904182703 77 0 0.0 0.0 0.00 0.00 0.00 69 1018.3
20260904181804 78 0 0.0 0.0 0.00 0.00 0.00 69 1018.3
20260904180903 78 0 0.0 0.0 0.00 0.00 0.00 67 1018.3
20260904180003 79 0 0.0 0.0 0.00 0.00 0.00 65 1018.3
20260904175404 80 0 0.0 0.0 0.00 0.00 0.00 63 1018.3
20260904174503 82 0 0.0 0.0 0.00 0.00 0.00 61 1018.3
20260904173603 83 169 1.0 1.0 0.00 0.00 0.00 58 1018.3
20260904172703 84 169 1.0 1.0 0.00 0.00 0.00 57 1018.1
20260904171803 86 168 0.0 2.0 0.00 0.00 0.00 56 1018.0
20260904170904 86 168 1.0 2.0 0.00 0.00 0.00 52 1018.1
20260904170003 86 163 1.0 4.0 0.00 0.00 0.00 54 1018.2
20260904165404 86 153 1.0 4.0 0.00 0.00 0.00 50 1018.2